Weather observations for the past three days for
Willmar Municipal Airport - John L. Rice Field
Imperial (Metric)
Date Time (cdt) Wind (mph) Vis. (mi.) Weather Sky Cond. Temperature (ºF) Relative Humidity Wind Chill (°F) Heat Index (°F) Pressure Precipitation (in)
Air Dwpt 6 hour altimeter (in) sea level (mb) 1 hr 3 hr 6 hr
Max. Min.
23 18:55 E 13 10.00 Fair CLR 71.6 64.4 78% 30.06 0.0
23 18:35 NE 13 G 20 10.00 Fair CLR 73.4 66.2 78% 30.05 0.0
23 18:15 NE 14 10.00 Fair CLR 73.4 68 83% 30.04 0.0
23 17:55 E 12 10.00 A Few Clouds FEW032 75.2 68 78% 76 30.04 0.0
23 17:35 E 12 10.00 A Few Clouds FEW032 75.2 68 78% 76 30.04 0.0
23 17:15 E 10 10.00 Fair CLR 77 66.2 69% 79 30.03 0.0
23 16:55 Vrbl 7 10.00 Mostly Cloudy SCT030 BKN039 77 68 74% 79 30.03 0.0
23 16:35 E 9 10.00 Overcast BKN029 OVC038 77 68 74% 79 30.03 0.0
23 16:15 E 7 10.00 Overcast BKN028 OVC034 77 66.2 69% 79 30.04 0.0
23 15:55 Vrbl 3 10.00 Partly Cloudy SCT028 SCT034 77 66.2 69% 79 30.03 0.0
23 15:35 E 7 10.00 Partly Cloudy SCT027 77 68 74% 79 30.03 0.0
23 15:15 NE 8 10.00 Fair CLR 77 68 74% 79 30.03 0.0
23 14:55 Vrbl 5 G 12 10.00 Fair CLR 77 68 74% 79 30.03 0.0
23 14:35 NE 6 G 14 10.00 Fair CLR 75.2 66.2 74% 77 30.03 0.0
23 14:15 E 7 10.00 Fair CLR 75.2 66.2 74% 77 30.02 0.0
23 13:55 NE 6 10.00 Fair CLR 75.2 66.2 74% 77 30.02 0.0
23 13:35 E 8 10.00 Fair CLR 75.2 66.2 74% 77 30.03 0.0
23 13:15 NE 6 10.00 Fair CLR 75.2 66.2 74% 77 30.03 0.0
23 12:55 NE 7 10.00 A Few Clouds FEW020 75.2 66.2 74% 77 30.03 0.0
23 12:35 E 8 10.00 A Few Clouds FEW020 73.4 66.2 78% 30.03 0.0
23 12:15 Vrbl 7 10.00 Partly Cloudy SCT017 73.4 66.2 78% 30.03 0.0
23 11:55 NE 8 10.00 Partly Cloudy SCT016 71.6 66.2 83% 30.03 0.0
23 11:35 E 8 10.00 A Few Clouds FEW015 71.6 64.4 78% 30.03 0.0
23 11:15 SE 7 9.00 A Few Clouds FEW015 71.6 64.4 78% 30.03 0.0
23 10:55 SE 6 9.00 Fair CLR 69.8 64.4 83% 30.02 0.0
23 10:35 E 6 8.00 Fair CLR 69.8 64.4 83% 30.02 0.0
23 10:15 Calm 7.00 Fair CLR 68 62.6 83% 30.02 0.0
23 09:55 SE 7 7.00 Fair CLR 68 62.6 83% 30.02 0.0
23 09:35 S 10 6.00 Fog/Mist FEW011 64.4 62.6 94% 30.02 0.0
23 09:15 S 12 7.00 Partly Cloudy FEW007 SCT011 SCT085 64.4 62.6 94% 30.02 0.0
23 08:55 S 13 10.00 Thunderstorm in Vicinity FEW085 64.4 64.4 100% 30 0.0
23 08:35 E 15 G 21 5.00 Thunderstorm in Vicinity Rain Fog/Mist FEW009 FEW030 SCT075 64.4 64.4 100% 30 0.0
23 08:15 E 9 2.50 Thunderstorm in Vicinity Rain Fog/Mist FEW008 SCT015 BKN041 64.4 64.4 100% 30.03 0.0
23 07:55 W 5 G 16 2.50 Thunderstorm in Vicinity Rain Fog/Mist FEW003 SCT007 BKN019 66.2 64.4 94% 30.04 0.0
23 07:35 W 16 G 22 1.50 Thunderstorm in Vicinity Rain Fog/Mist BKN006 OVC018 66.2 66.2 100% 30.05 0.0
23 07:15 NE 12 2.00 Thunderstorm in Vicinity Rain Fog/Mist FEW005 BKN038 OVC080 66.2 66.2 100% 30.01 0.0
23 06:35 SE 6 6.00 Fog/Mist FEW039 BKN049 BKN060 66.2 66.2 100% 30 0.0
23 06:15 E 5 6.00 Thunderstorm in Vicinity Fog/Mist FEW039 SCT050 66.2 66.2 100% 29.99 0.0
23 05:55 E 6 6.00 Fog/Mist FEW050 66.2 66.2 100% 29.99 0.0
23 05:35 NE 6 6.00 Fog/Mist CLR 66.2 66.2 100% 30 0.0
23 05:15 E 5 5.00 Fog/Mist SCT060 SCT070 66.2 66.2 100% 29.99 0.0
23 04:55 E 5 5.00 Fog/Mist BKN060 BKN080 66.2 66.2 100% 29.99 0.0
23 04:35 SE 3 6.00 Thunderstorm in Vicinity Fog/Mist SCT070 BKN080 66.2 64.4 94% 29.99 0.0
23 04:15 SE 3 5.00 Fog/Mist BKN065 OVC090 66.2 66.2 100% 29.99 0.0
23 03:55 E 3 6.00 Fog/Mist BKN065 BKN070 OVC110 66.2 66.2 100% 30 0.0
23 03:35 Calm 6.00 Fog/Mist FEW055 SCT070 BKN090 66.2 66.2 100% 30 0.0
23 03:15 SE 5 6.00 Fog/Mist FEW080 SCT110 66.2 66.2 100% 29.99 0.0
23 02:55 SE 3 5.00 Fog/Mist BKN080 66.2 66.2 100% 29.99 0.0
23 02:35 SE 5 7.00 Overcast OVC080 66.2 64.4 94% 29.99 0.0
23 02:15 Calm 7.00 Overcast OVC080 66.2 66.2 100% 29.99 0.0
23 01:55 Calm 8.00 Mostly Cloudy BKN080 66.2 66.2 100% 29.98 0.0
23 01:35 SE 5 8.00 Partly Cloudy SCT085 66.2 66.2 100% 29.98 0.0
23 01:15 Calm 7.00 Fair CLR 66.2 66.2 100% 29.99 0.0
23 00:55 NE 5 5.00 Fog/Mist CLR 66.2 64.4 94% 29.99 0.0
23 00:35 E 3 9.00 Fair CLR 68 66.2 94% 29.99 0.0
23 00:15 E 3 8.00 Fair CLR 68 66.2 94% 29.99 0.0
22 23:55 SE 3 9.00 Fair CLR 69.8 68 94% 29.99 0.0
22 23:35 E 5 7.00 Fair CLR 68 66.2 94% 29.99 0.0
22 23:15 E 6 8.00 Fair CLR 69.8 68 94% 29.99 0.0
22 22:55 NE 7 6.00 Fog/Mist CLR 69.8 68 94% 29.99 0.0
22 22:35 Calm 6.00 Fog/Mist FEW060 69.8 68 94% 29.98 0.0
22 22:15 Calm 7.00 Partly Cloudy SCT060 71.6 69.8 94% 29.98 0.0
22 21:55 NW 3 8.00 Fair CLR 73.4 69.8 89% 29.98 0.0
22 21:35 W 3 7.00 Fair CLR 71.6 69.8 94% 29.98 0.0
22 21:15 W 5 8.00 Fair CLR 73.4 69.8 89% 29.98 0.0
22 20:55 Calm 8.00 Fair CLR 75.2 69.8 83% 75 29.98 0.0
22 20:35 W 3 7.00 Fair CLR 75.2 69.8 83% 75 29.98 0.0
22 20:15 NW 5 7.00 Fair CLR 77 69.8 79% 79 29.98 0.0
22 19:55 NW 5 8.00 Fair CLR 77 69.8 79% 79 29.98 0.0
22 19:35 NW 5 7.00 Fair CLR 78.8 69.8 74% 81 29.98 0.0
22 19:15 NW 5 8.00 Fair CLR 78.8 69.8 74% 81 29.97 0.0
22 18:55 NW 5 8.00 Fair CLR 80.6 69.8 70% 84 29.96 0.0
22 18:35 NW 6 8.00 Fair CLR 80.6 68 66% 83 29.96 0.0
22 18:15 NW 6 G 13 7.00 Fair CLR 80.6 66.2 62% 83 29.96 0.0
22 17:55 NW 10 8.00 Fair CLR 80.6 68 66% 83 29.96 0.0
22 17:35 NW 10 9.00 Fair CLR 80.6 66.2 62% 83 29.96 0.0
22 17:15 NW 9 9.00 Fair CLR 82.4 69.8 66% 86 29.97 0.0
22 16:55 NW 10 9.00 Fair CLR 82.4 69.8 66% 86 29.97 0.0
22 16:35 NW 10 9.00 Fair CLR 82.4 69.8 66% 86 29.97 0.0
22 16:15 NW 8 9.00 A Few Clouds FEW038 FEW048 82.4 69.8 66% 86 29.97 0.0
22 15:55 NW 8 G 15 10.00 Fair CLR 82.4 69.8 66% 86 29.98 0.0
22 15:35 W 8 G 15 9.00 A Few Clouds FEW035 FEW048 FEW055 82.4 69.8 66% 86 29.98 0.0
22 15:15 NW 9 9.00 Partly Cloudy FEW035 FEW049 SCT065 82.4 69.8 66% 86 29.99 0.0
22 14:55 NW 8 G 14 10.00 Partly Cloudy FEW033 FEW043 SCT065 82.4 69.8 66% 86 30 0.0
22 14:35 W 8 10.00 A Few Clouds FEW034 FEW042 FEW050 80.6 69.8 70% 84 30 0.0
22 14:15 W 8 10.00 Mostly Cloudy SCT036 SCT041 BKN049 82.4 69.8 66% 86 30.01 0.0
22 13:55 SW 10 10.00 Mostly Cloudy SCT039 BKN048 BKN070 82.4 68 62% 85 30.02 0.0
22 13:35 W 9 10.00 A Few Clouds FEW035 82.4 68 62% 85 30.02 0.0
22 13:15 SW 10 10.00 A Few Clouds FEW033 80.6 68 66% 83 30.02 0.0
22 12:55 W 8 10.00 Fair CLR 80.6 68 66% 83 30.03 0.0
22 12:35 SW 7 10.00 Fair CLR 80.6 68 66% 83 30.03 0.0
22 12:15 SW 6 10.00 Fair CLR 78.8 69.8 74% 81 30.03 0.0
22 11:55 W 7 10.00 Fair CLR 78.8 69.8 74% 81 30.03 0.0
22 11:35 Vrbl 7 10.00 Fair CLR 78.8 68 70% 81 30.03 0.0
22 11:15 Vrbl 5 10.00 Fair CLR 77 68 74% 79 30.04 0.0
22 10:55 W 5 10.00 Fair CLR 77 68 74% 79 30.04 0.0
22 10:35 Vrbl 3 10.00 Fair CLR 77 68 74% 79 30.04 0.0
22 10:15 Vrbl 6 10.00 Fair CLR 75.2 68 78% 76 30.05 0.0
22 09:55 Vrbl 5 10.00 Fair CLR 75.2 68 78% 76 30.05 0.0
22 09:35 W 5 10.00 Fair CLR 73.4 68 83% 30.05 0.0
22 09:15 W 5 9.00 Fair CLR 71.6 68 88% 30.06 0.0
22 08:55 NW 6 9.00 Fair CLR 71.6 66.2 83% 30.06 0.0
22 08:35 Calm 9.00 Fair CLR 69.8 66.2 88% 30.06 0.0
22 08:15 W 3 9.00 Fair CLR 68 66.2 94% 30.06 0.0
22 07:55 W 3 8.00 Fair CLR 68 64.4 88% 30.05 0.0
22 07:35 W 3 8.00 Fair CLR 66.2 64.4 94% 30.05 0.0
22 07:15 Calm 7.00 Fair CLR 64.4 62.6 94% 30.06 0.0
22 06:55 Calm 6.00 Fog/Mist CLR 62.6 62.6 100% 30.06 0.0
22 06:35 Calm 6.00 Fog/Mist CLR 62.6 60.8 94% 30.06 0.0
22 06:15 Calm 5.00 Fog/Mist CLR 60.8 60.8 100% 30.06 0.0
22 05:55 Calm 6.00 Fog/Mist CLR 60.8 60.8 100% 30.06 0.0
22 05:35 Calm 7.00 Fair CLR 60.8 60.8 100% 30.07 0.0
22 05:15 Calm 7.00 Fair CLR 62.6 62.6 100% 30.07 0.0
22 04:55 Calm 8.00 Fair CLR 62.6 62.6 100% 30.07 0.0
22 04:35 Calm 8.00 Fair CLR 62.6 62.6 100% 30.07 0.0
22 04:15 Calm 8.00 Fair CLR 62.6 62.6 100% 30.07 0.0
22 03:55 Calm 9.00 Fair CLR 62.6 62.6 100% 30.08 0.0
22 03:35 Calm 9.00 Fair CLR 64.4 62.6 94% 30.08 0.0
22 03:15 Calm 8.00 Fair CLR 64.4 62.6 94% 30.08 0.0
22 02:55 S 5 7.00 Fair CLR 64.4 62.6 94% 30.08 0.0
22 02:35 Calm 8.00 Fair CLR 64.4 64.4 100% 30.09 0.0
22 02:15 Calm 8.00 Fair CLR 64.4 64.4 100% 30.09 0.0
22 01:55 SE 5 7.00 Fair CLR 62.6 62.6 100% 30.1 0.0
22 01:35 Calm 8.00 Fair CLR 66.2 64.4 94% 30.1 0.0
22 01:15 Calm 8.00 Fair CLR 66.2 64.4 94% 30.11 0.0
22 00:55 Calm 7.00 Fair CLR 64.4 64.4 100% 30.1 0.0
22 00:35 Calm 8.00 Fair CLR 64.4 64.4 100% 30.11 0.0
22 00:15 Calm 4.00 Fog/Mist CLR 68 66.2 94% 30.11 0.0
21 23:55 S 3 9.00 Fair CLR 68 66.2 94% 30.11 0.0
21 23:35 Calm 9.00 Fair CLR 68 66.2 94% 30.11 0.0
21 23:15 E 3 8.00 Fair CLR 68 66.2 94% 30.11 0.0
21 22:55 SE 5 8.00 Fair CLR 68 66.2 94% 30.1 0.0
21 22:35 SE 6 8.00 Fair CLR 68 66.2 94% 30.09 0.0
21 22:15 S 3 8.00 Fair CLR 69.8 66.2 88% 30.1 0.0
21 21:55 S 5 9.00 Fair CLR 69.8 68 94% 30.1 0.0
21 21:35 SE 5 10.00 Fair CLR 69.8 68 94% 30.1 0.0
21 21:15 SE 6 10.00 Fair CLR 69.8 68 94% 30.1 0.0
21 20:55 E 3 10.00 Fair CLR 71.6 68 88% 30.1 0.0
21 20:35 Calm 10.00 Fair CLR 73.4 69.8 89% 30.1 0.0
21 20:15 Calm 10.00 Fair CLR 75.2 68 78% 76 30.11 0.0
21 19:55 S 3 10.00 Fair CLR 75.2 68 78% 76 30.1 0.0
21 19:35 Calm 9.00 Fair CLR 75.2 68 78% 76 30.1 0.0
21 19:15 SW 5 10.00 Fair CLR 77 68 74% 79 30.1 0.0
21 18:55 SW 5 10.00 Fair CLR 77 68 74% 79 30.1 0.0
21 18:35 S 6 G 12 10.00 Fair CLR 77 69.8 79% 79 30.1 0.0
21 18:15 SW 7 10.00 Fair CLR 77 69.8 79% 79 30.09 0.0
21 17:55 S 8 10.00 Fair CLR 77 69.8 79% 79 30.1 0.0
21 17:35 S 5 10.00 Fair CLR 77 68 74% 79 30.1 0.0
21 17:15 S 7 10.00 Fair CLR 75.2 68 78% 76 30.11 0.0
21 16:55 S 6 10.00 Fair CLR 75.2 68 78% 76 30.12 0.0
21 16:35 Calm 10.00 Fair CLR 73.4 68 83% 30.12 0.0
21 16:15 Calm 7.00 Light Rain CLR 75.2 68 78% 76 30.13 0.0
21 15:55 S 7 G 14 10.00 Thunderstorm in Vicinity FEW050 FEW060 75.2 64.4 69% 77 30.13 0.0
21 15:35 SE 13 G 22 10.00 Partly Cloudy SCT048 SCT060 75.2 68 78% 76 30.14 0.0
21 15:15 SE 12 10.00 Partly Cloudy FEW042 SCT050 SCT060 78.8 69.8 74% 81 30.14 0.0
21 14:55 SE 8 10.00 Partly Cloudy SCT034 SCT055 78.8 69.8 74% 81 30.13 0.0
21 14:35 S 5 10.00 Partly Cloudy SCT033 SCT039 80.6 68 66% 83 30.14 0.0
21 14:15 Calm 10.00 Partly Cloudy FEW033 SCT039 SCT046 80.6 68 66% 83 30.14 0.0
21 13:55 Calm 10.00 Partly Cloudy SCT033 SCT044 SCT110 78.8 66.2 65% 81 30.14 0.0
21 13:35 Calm 10.00 Fair CLR 78.8 66.2 65% 81 30.15 0.0
21 13:15 SE 5 10.00 Fair CLR 80.6 68 66% 83 30.15 0.0
21 12:55 Calm 10.00 Fair CLR 80.6 68 66% 83 30.15 0.0
21 12:35 Vrbl 5 10.00 Fair CLR 78.8 68 70% 81 30.15 0.0
21 12:15 E 5 10.00 Fair CLR 77 68 74% 79 30.16 0.0
21 11:55 E 5 10.00 Fair CLR 77 66.2 69% 79 30.16 0.0
21 11:35 E 6 10.00 Fair CLR 75.2 68 78% 76 30.16 0.0
21 11:15 Calm 10.00 Fair CLR 75.2 68 78% 76 30.16 0.0
21 10:55 Calm 10.00 Fair CLR 73.4 68 83% 30.16 0.0
21 10:35 E 3 9.00 Fair CLR 71.6 66.2 83% 30.15 0.0
21 10:15 Calm 10.00 Fair CLR 71.6 68 88% 30.15 0.0
21 09:55 NE 5 9.00 A Few Clouds FEW110 69.8 68 94% 30.14 0.0
21 09:35 NE 6 8.00 A Few Clouds FEW120 69.8 68 94% 30.14 0.0
21 09:15 N 6 8.00 Mostly Cloudy BKN120 69.8 68 94% 30.15 0.0
21 08:55 NE 5 7.00 Mostly Cloudy BKN120 68 68 100% 30.15 0.0
21 08:35 Calm 7.00 Fair CLR 68 66.2 94% 30.14 0.0
21 08:15 Calm 7.00 Fair CLR 68 66.2 94% 30.15 0.0
21 07:55 N 7 8.00 A Few Clouds FEW095 68 66.2 94% 30.15 0.0
21 07:35 N 6 G 13 9.00 Fair CLR 68 66.2 94% 30.15 0.0
21 07:15 N 6 7.00 Fair CLR 68 66.2 94% 30.14 0.0
21 06:55 N 5 9.00 Fair CLR 68 66.2 94% 30.14 0.0
21 06:35 N 3 7.00 Thunderstorm in Vicinity CLR 64.4 64.4 100% 30.14 0.0
21 06:15 Calm 9.00 Thunderstorm in Vicinity CLR 64.4 64.4 100% 30.13 0.0
21 05:55 Calm 7.00 Fair CLR 64.4 64.4 100% 30.12 0.0
21 05:35 Calm 6.00 Fog/Mist CLR 64.4 64.4 100% 30.12 0.0
21 05:15 Calm 7.00 Fair CLR 64.4 64.4 100% 30.12 0.0
21 04:55 Calm 7.00 Fair CLR 64.4 64.4 100% 30.12 0.0
21 04:35 Calm 6.00 Fog/Mist CLR 64.4 64.4 100% 30.13 0.0
21 04:15 Calm 6.00 Fog/Mist CLR 64.4 64.4 100% 30.13 0.0
21 03:55 Calm 7.00 Fair CLR 64.4 64.4 100% 30.13 0.0
21 03:35 Calm 9.00 Fair CLR 64.4 64.4 100% 30.13 0.0
21 03:15 N 3 7.00 Fair CLR 66.2 66.2 100% 30.14 0.0
21 02:55 Calm 8.00 Fair CLR 64.4 64.4 100% 30.13 0.0
21 02:35 Calm 8.00 A Few Clouds FEW110 64.4 64.4 100% 30.13 0.0
21 02:15 Calm 9.00 Partly Cloudy SCT110 66.2 66.2 100% 30.13 0.0
21 01:55 Calm 9.00 Partly Cloudy SCT100 66.2 64.4 94% 30.13 0.0
21 01:35 Calm 10.00 A Few Clouds FEW100 68 64.4 88% 30.13 0.0
21 01:15 Calm 8.00 A Few Clouds FEW100 68 66.2 94% 30.12 0.0
21 00:55 Calm 10.00 Partly Cloudy SCT100 66.2 66.2 100% 30.13 0.0
21 00:35 Calm 10.00 Mostly Cloudy BKN095 66.2 66.2 100% 30.12 0.0
21 00:15 Calm 10.00 Overcast FEW065 OVC090 69.8 66.2 88% 30.11 0.0
20 23:55 Calm 10.00 Overcast OVC095 68 66.2 94% 30.11 0.0
20 23:35 Calm 10.00 Overcast OVC095 69.8 68 94% 30.11 0.0
20 22:55 Calm 10.00 Overcast OVC100 69.8 68 94% 30.11 0.0
20 22:35 Calm 7.00 Mostly Cloudy BKN100 69.8 66.2 88% 30.12 0.0
20 22:15 Calm 9.00 Partly Cloudy SCT100 73.4 66.2 78% 30.13 0.0
20 21:55 NE 5 10.00 Partly Cloudy SCT100 71.6 68 88% 30.13 0.0
20 21:35 NE 3 10.00 Fair CLR 71.6 68 88% 30.12 0.0
20 21:15 NE 3 9.00 Fair CLR 73.4 68 83% 30.11 0.0
20 20:55 N 3 10.00 Fair CLR 75.2 68 78% 76 30.11 0.0
20 20:35 NE 3 9.00 Fair CLR 75.2 69.8 83% 75 30.1 0.0
20 20:15 Calm 10.00 Fair CLR 78.8 66.2 65% 81 30.09 0.0
20 19:55 Calm 9.00 Fair CLR 78.8 69.8 74% 81 30.09 0.0
20 19:35 Calm 10.00 Fair CLR 78.8 68 70% 81 30.09 0.0
20 19:15 NE 5 10.00 Fair CLR 80.6 68 66% 83 30.09 0.0
Date Time (cdt) Wind (mph) Vis. (mi.) Weather Sky Cond. Air Dwpt Max. Min. Relative Humidity Wind Chill (°F) Heat Index (°F) altimeter (in) sea level (mb) 1 hr 3 hr 6 hr
6 hour
Temperature (ºF) Pressure Precipitation (in)